When you browse on this site, cookies collect data to enhance your experience and personalize the content and advertising you see.
Visit our Privacy Policy to learn more. By continuing to use the site, you agree to this use of cookies and data.
  • In Germany
  • List of Countries
  • For 7 days
  • Water Temperature
  • Satellite Maps
  • Weather Map
  • Weather Widgets
  • user-avatar
    Login

    Hourly Weather Noicattaro

    Today, 12 December, Wednesday

    Time Temperature Precipitation Wind Pressure Humidity
    00:00 +7°C° 0.3 mm 3 mps 755 mmHg 66%
    01:00 +7°C° 0 mm 3 mps 754 mmHg 68%
    02:00 +7°C° 0.2 mm 3 mps 755 mmHg 68%
    03:00 +5°C° 0.2 mm 3 mps 755 mmHg 69%
    04:00 +5°C° 0.2 mm 3 mps 755 mmHg 69%
    05:00 +5°C° 0.2 mm 3 mps 755 mmHg 69%
    06:00 +5°C° 0.2 mm 3 mps 755 mmHg 69%
    07:00 +6°C° 0 mm 2 mps 755 mmHg 70%
    08:00 +7°C° 0.2 mm 2 mps 755 mmHg 65%
    09:00 +8°C° 0.2 mm 2 mps 755 mmHg 60%
    10:00 +9°C° 0.2 mm 2 mps 756 mmHg 55%
    11:00 +10°C° 0 mm 2 mps 756 mmHg 51%
    12:00 +10°C° 0 mm 2 mps 756 mmHg 47%
    13:00 +12°C° 0 mm 1 mps 755 mmHg 41%
    14:00 +12°C° 0 mm 1 mps 755 mmHg 43%
    15:00 +11°C° 0 mm 1 mps 755 mmHg 45%
    16:00 +11°C° 0 mm 1 mps 755 mmHg 47%
    17:00 +10°C° 0 mm 1 mps 755 mmHg 49%
    18:00 +9°C° 0 mm 2 mps 755 mmHg 52%
    19:00 +8°C° 0 mm 2 mps 755 mmHg 54%
    20:00 +8°C° 0 mm 2 mps 755 mmHg 55%
    21:00 +8°C° 0 mm 2 mps 755 mmHg 55%
    22:00 +8°C° 0 mm 2 mps 755 mmHg 56%
    23:00 +9°C° 0 mm 2 mps 755 mmHg 57%

    Tomorrow, 13 December, Thursday

    Time Temperature Precipitation Wind Pressure Humidity
    00:00 +9°C° 0 mm 3 mps 755 mmHg 58%
    01:00 +9°C° 0 mm 3 mps 754 mmHg 58%
    02:00 +9°C° 0 mm 3 mps 754 mmHg 62%
    03:00 +9°C° 0 mm 3 mps 754 mmHg 65%
    04:00 +8°C° 0 mm 4 mps 753 mmHg 68%
    05:00 +8°C° 0 mm 4 mps 753 mmHg 71%
    06:00 +7°C° 0 mm 4 mps 753 mmHg 74%
    07:00 +7°C° 0 mm 5 mps 752 mmHg 77%
    08:00 +8°C° 0.1 mm 6 mps 752 mmHg 75%
    09:00 +9°C° 0.1 mm 6 mps 752 mmHg 73%
    10:00 +9°C° 0.1 mm 7 mps 752 mmHg 71%
    11:00 +10°C° 0.1 mm 7 mps 751 mmHg 71%
    12:00 +10°C° 0.1 mm 7 mps 751 mmHg 71%
    13:00 +11°C° 0.1 mm 8 mps 750 mmHg 71%
    14:00 +11°C° 0.1 mm 8 mps 750 mmHg 73%
    15:00 +11°C° 0.1 mm 7 mps 750 mmHg 75%
    16:00 +11°C° 0.1 mm 7 mps 749 mmHg 78%
    17:00 +10°C° 0.2 mm 7 mps 749 mmHg 80%
    18:00 +10°C° 0.2 mm 6 mps 749 mmHg 83%
    19:00 +10°C° 0.2 mm 6 mps 749 mmHg 85%
    20:00 +10°C° 0.1 mm 5 mps 749 mmHg 83%
    21:00 +10°C° 0.1 mm 5 mps 750 mmHg 80%
    22:00 +11°C° 0.1 mm 4 mps 750 mmHg 78%
    23:00 +11°C° 0 mm 4 mps 750 mmHg 78%

    Day after tomorrow, 14 December, Friday

    Time Temperature Precipitation Wind Pressure Humidity
    00:00 +11°C° 0 mm 3 mps 750 mmHg 78%
    01:00 +12°C° 0 mm 2 mps 750 mmHg 79%
    02:00 +12°C° 0.3 mm 2 mps 750 mmHg 80%
    03:00 +11°C° 0.3 mm 1 mps 749 mmHg 82%
    04:00 +11°C° 0.3 mm 1 mps 749 mmHg 84%
    05:00 +10°C° 0.2 mm 2 mps 749 mmHg 84%
    06:00 +10°C° 0.2 mm 2 mps 749 mmHg 84%
    07:00 +10°C° 0.2 mm 3 mps 749 mmHg 84%
    08:00 +12°C° 0.2 mm 4 mps 749 mmHg 80%
    09:00 +13°C° 0.2 mm 4 mps 749 mmHg 76%
    10:00 +14°C° 0.2 mm 4 mps 750 mmHg 72%
    11:00 +15°C° 0 mm 4 mps 749 mmHg 68%
    12:00 +17°C° 0 mm 4 mps 749 mmHg 65%
    13:00 +17°C° 0 mm 3 mps 748 mmHg 61%
    14:00 +17°C° 0 mm 3 mps 748 mmHg 64%
    15:00 +16°C° 0 mm 2 mps 748 mmHg 67%
    16:00 +15°C° 0 mm 2 mps 748 mmHg 70%
    17:00 +15°C° 0 mm 2 mps 748 mmHg 73%
    18:00 +14°C° 0 mm 2 mps 749 mmHg 76%
    19:00 +14°C° 0 mm 2 mps 749 mmHg 79%
    20:00 +13°C° 0 mm 3 mps 749 mmHg 81%
    21:00 +12°C° 0 mm 3 mps 749 mmHg 83%
    22:00 +12°C° 0 mm 3 mps 749 mmHg 85%
    23:00 +12°C° 0.2 mm 3 mps 749 mmHg 87%

    15 December, Saturday

    Time Temperature Precipitation Wind Pressure Humidity
    00:00 +12°C° 0.2 mm 3 mps 749 mmHg 88%
    01:00 +12°C° 0.2 mm 3 mps 749 mmHg 89%
    02:00 +12°C° 0.6 mm 3 mps 749 mmHg 89%
    03:00 +12°C° 0.6 mm 4 mps 749 mmHg 89%
    04:00 +12°C° 0.6 mm 4 mps 748 mmHg 89%
    05:00 +12°C° 0.4 mm 4 mps 749 mmHg 87%
    06:00 +12°C° 0.4 mm 5 mps 749 mmHg 86%
    07:00 +12°C° 0.4 mm 5 mps 749 mmHg 85%
    08:00 +11°C° 0.2 mm 6 mps 749 mmHg 84%
    09:00 +11°C° 0.2 mm 6 mps 749 mmHg 83%
    10:00 +11°C° 0.2 mm 7 mps 750 mmHg 83%
    11:00 +11°C° 0.2 mm 7 mps 750 mmHg 80%
    12:00 +11°C° 0.2 mm 7 mps 750 mmHg 77%
    13:00 +11°C° 0.2 mm 8 mps 750 mmHg 74%
    14:00 +10°C° 0.1 mm 8 mps 750 mmHg 75%
    15:00 +10°C° 0.1 mm 8 mps 750 mmHg 75%
    16:00 +10°C° 0.1 mm 8 mps 750 mmHg 76%
    17:00 +9°C° 0.2 mm 8 mps 750 mmHg 76%
    18:00 +9°C° 0.2 mm 8 mps 750 mmHg 77%
    19:00 +9°C° 0.2 mm 8 mps 751 mmHg 77%
    20:00 +7°C° 0.1 mm 8 mps 751 mmHg 76%
    21:00 +7°C° 0.1 mm 9 mps 751 mmHg 75%
    22:00 +7°C° 0.1 mm 9 mps 751 mmHg 73%
    23:00 +7°C° 0 mm 9 mps 751 mmHg 73%

    16 December, Sunday

    Time Temperature Precipitation Wind Pressure Humidity
    00:00 +6°C° 0 mm 9 mps 752 mmHg 72%
    01:00 +6°C° 0 mm 9 mps 752 mmHg 72%
    02:00 +6°C° 0 mm 9 mps 752 mmHg 71%
    03:00 +6°C° 0 mm 9 mps 752 mmHg 71%
    04:00 +5°C° 0 mm 9 mps 752 mmHg 70%
    05:00 +5°C° 0 mm 9 mps 752 mmHg 70%
    06:00 +5°C° 0 mm 8 mps 752 mmHg 70%
    07:00 +5°C° 0 mm 8 mps 753 mmHg 71%
    08:00 +6°C° 0 mm 8 mps 753 mmHg 69%
    09:00 +7°C° 0 mm 8 mps 753 mmHg 67%
    10:00 +7°C° 0 mm 8 mps 754 mmHg 65%
    11:00 +9°C° 0 mm 8 mps 754 mmHg 63%
    12:00 +9°C° 0 mm 8 mps 754 mmHg 62%
    13:00 +9°C° 0 mm 8 mps 753 mmHg 60%
    14:00 +9°C° 0 mm 7 mps 754 mmHg 61%
    15:00 +9°C° 0 mm 7 mps 754 mmHg 62%
    16:00 +9°C° 0 mm 7 mps 754 mmHg 63%
    17:00 +8°C° 0 mm 6 mps 754 mmHg 65%
    18:00 +8°C° 0 mm 5 mps 755 mmHg 67%
    19:00 +7°C° 0 mm 5 mps 755 mmHg 69%
    20:00 +7°C° 0 mm 4 mps 755 mmHg 68%
    21:00 +7°C° 0 mm 4 mps 755 mmHg 68%
    22:00 +8°C° 0 mm 3 mps 755 mmHg 67%
    23:00 +8°C° 0 mm 3 mps 755 mmHg 66%

    17 December, Monday

    Time Temperature Precipitation Wind Pressure Humidity
    00:00 +8°C° 0 mm 3 mps 755 mmHg 64%
    01:00 +8°C° 0 mm 2 mps 755 mmHg 62%
    02:00 +8°C° 0 mm 2 mps 755 mmHg 61%
    03:00 +8°C° 0 mm 2 mps 755 mmHg 60%
    04:00 +8°C° 0 mm 2 mps 755 mmHg 59%
    05:00 +8°C° 0 mm 2 mps 755 mmHg 58%
    06:00 +9°C° 0 mm 1 mps 755 mmHg 57%
    07:00 +9°C° 0 mm 1 mps 755 mmHg 56%
    08:00 +10°C° 0 mm 1 mps 755 mmHg 53%
    09:00 +11°C° 0 mm 1 mps 755 mmHg 50%
    10:00 +12°C° 0 mm 1 mps 755 mmHg 47%
    11:00 +12°C° 0 mm 2 mps 755 mmHg 48%
    12:00 +13°C° 0 mm 2 mps 755 mmHg 49%
    13:00 +12°C° 0 mm 3 mps 754 mmHg 50%
    14:00 +12°C° 0.1 mm 3 mps 754 mmHg 57%
    15:00 +12°C° 0.1 mm 4 mps 754 mmHg 64%
    16:00 +11°C° 0.1 mm 4 mps 753 mmHg 71%
    17:00 +11°C° 0.1 mm 4 mps 753 mmHg 76%
    18:00 +10°C° 0.1 mm 5 mps 753 mmHg 81%
    19:00 +10°C° 0.1 mm 5 mps 753 mmHg 86%
    20:00 +10°C° 0.3 mm 5 mps 753 mmHg 87%
    21:00 +10°C° 0.3 mm 5 mps 752 mmHg 88%
    22:00 +11°C° 0.3 mm 4 mps 752 mmHg 90%
    23:00 +10°C° 0.6 mm 5 mps 752 mmHg 88%
    Show more